TimeEDT,TemperatureF,Dew PointF,Humidity,Sea Level PressureIn,VisibilityMPH,Wind Direction,Wind SpeedMPH,Gust SpeedMPH,PrecipitationIn,Events,Conditions,WindDirDegrees,DateUTC
12:52 AM,39.0,24.1,55,30.24,10.0,Calm,Calm,-,N/A,,Clear,0,2013-03-11 04:52:00
1:52 AM,39.9,23.0,51,30.23,10.0,East,5.8,-,N/A,,Clear,100,2013-03-11 05:52:00
2:52 AM,37.9,23.0,55,30.23,10.0,ESE,4.6,-,N/A,,Clear,120,2013-03-11 06:52:00
3:52 AM,37.0,23.0,57,30.21,10.0,SE,4.6,-,N/A,,Clear,130,2013-03-11 07:52:00
4:52 AM,37.9,23.0,55,30.19,10.0,Calm,Calm,-,N/A,,Clear,0,2013-03-11 08:52:00
5:52 AM,37.0,24.1,59,30.20,10.0,East,6.9,-,N/A,,Clear,100,2013-03-11 09:52:00
6:52 AM,37.0,23.0,57,30.20,10.0,East,5.8,-,N/A,,Clear,80,2013-03-11 10:52:00
7:52 AM,36.0,23.0,59,30.19,10.0,ENE,6.9,-,N/A,,Clear,70,2013-03-11 11:52:00
8:52 AM,37.9,23.0,55,30.19,10.0,East,8.1,-,N/A,,Clear,80,2013-03-11 12:52:00
9:52 AM,37.9,23.0,55,30.21,10.0,ENE,9.2,-,N/A,,Clear,70,2013-03-11 13:52:00
10:52 AM,42.1,25.0,51,30.21,10.0,ENE,6.9,-,N/A,,Clear,70,2013-03-11 14:52:00
11:52 AM,44.1,24.1,45,30.19,10.0,NE,6.9,16.1,N/A,,Mostly Cloudy,50,2013-03-11 15:52:00
12:52 PM,46.9,24.1,41,30.17,10.0,Calm,Calm,-,N/A,,Overcast,0,2013-03-11 16:52:00
1:52 PM,48.0,24.1,39,30.16,10.0,East,9.2,-,N/A,,Overcast,80,2013-03-11 17:52:00
2:52 PM,50.0,23.0,35,30.14,10.0,Calm,Calm,-,N/A,,Overcast,0,2013-03-11 18:52:00
3:52 PM,50.0,23.0,35,30.12,10.0,East,6.9,-,N/A,,Partly Cloudy,80,2013-03-11 19:52:00
4:52 PM,50.0,23.0,35,30.09,10.0,East,10.4,-,N/A,,Clear,90,2013-03-11 20:52:00
5:52 PM,48.0,28.0,46,30.09,10.0,ESE,20.7,28.8,N/A,,Clear,110,2013-03-11 21:52:00
6:52 PM,46.9,28.9,50,30.09,10.0,East,16.1,23.0,N/A,,Clear,100,2013-03-11 22:52:00
7:52 PM,46.9,30.9,54,30.09,10.0,East,17.3,33.4,N/A,,Clear,100,2013-03-11 23:52:00
8:52 PM,46.0,32.0,58,30.09,10.0,East,17.3,31.1,N/A,,Clear,90,2013-03-12 00:52:00
9:52 PM,45.0,33.1,63,30.07,10.0,East,13.8,32.2,N/A,,Clear,90,2013-03-12 01:52:00
10:52 PM,45.0,33.1,63,30.06,10.0,East,11.5,31.1,N/A,,Clear,80,2013-03-12 02:52:00
11:52 PM,45.0,34.0,65,30.03,10.0,East,10.4,19.6,N/A,,Clear,80,2013-03-12 03:52:00